PDT,Max TemperatureF,Mean TemperatureF,Min TemperatureF,Max Dew PointF,MeanDew PointF,Min DewpointF,Max Humidity, Mean Humidity, Min Humidity, Max Sea Level PressureIn, Mean Sea Level PressureIn, Min Sea Level PressureIn, Max VisibilityMiles, Mean VisibilityMiles, Min VisibilityMiles, Max Wind SpeedMPH, Mean Wind SpeedMPH, Max Gust SpeedMPH,PrecipitationIn, CloudCover, Events, WindDirDegrees
2013-8-1,74,68,62,57,57,55,84,69,53,30.03,29.97,29.91,10,8,2,8,1,13,0.00,4,,268
2013-8-2,76,69,62,59,58,57,84,69,54,29.97,29.94,29.90,10,9,6,7,2,,0.00,4,,255
2013-8-3,78,71,63,60,58,57,84,69,54,29.99,29.96,29.93,10,8,4,5,2,,0.00,4,,280
2013-8-4,76,69,62,59,58,57,84,69,54,30.01,29.97,29.93,10,8,4,5,1,,0.00,5,,260
2013-8-5,79,70,60,58,57,54,90,68,46,30.00,29.97,29.92,10,8,3,6,2,,0.00,3,,257
2013-8-6,77,69,61,58,56,55,90,70,50,30.03,29.99,29.96,10,9,5,8,2,15,0.00,3,,264
2013-8-7,78,70,61,57,57,55,84,67,50,30.07,30.02,29.98,10,9,6,9,2,14,0.00,3,,248
2013-8-8,79,70,60,58,57,56,90,69,48,29.99,29.95,29.91,10,10,10,9,1,16,0.00,0,,275
2013-8-9,78,70,61,58,57,55,90,70,50,29.96,29.93,29.91,10,10,6,9,1,17,0.00,3,,140
2013-8-10,77,70,62,58,57,55,84,67,50,30.03,29.98,29.95,10,8,4,9,1,15,0.00,4,,270
2013-8-11,79,70,61,59,57,55,90,69,47,29.99,29.95,29.89,10,8,5,9,1,15,0.00,4,,250
2013-8-12,79,71,62,59,58,56,90,69,47,29.97,29.93,29.89,10,8,5,8,1,15,0.00,5,,260
2013-8-13,81,72,62,61,59,57,90,71,52,29.97,29.92,29.86,10,6,3,8,1,14,0.00,4,,241
2013-8-14,82,74,65,61,60,59,87,67,47,29.92,29.89,29.82,7,5,2,8,1,14,0.00,5,,272
2013-8-15,83,74,64,61,61,59,87,67,47,29.94,29.90,29.87,10,6,3,8,1,10,0.00,1,,250
2013-8-16,85,75,64,62,60,57,87,67,47,29.95,29.93,29.89,10,7,2,9,1,14,0.00,0,,280
2013-8-17,81,72,63,61,59,56,93,68,42,29.94,29.90,29.81,10,7,2,9,1,14,0.00,1,,280
2013-8-18,80,71,61,61,60,57,90,71,52,29.90,29.85,29.82,10,7,4,7,1,12,0.00,1,,280
2013-8-19,80,72,64,61,61,59,87,71,54,29.94,29.90,29.86,10,7,5,9,1,15,0.00,4,,260
2013-8-20,78,70,62,61,59,58,90,70,50,29.94,29.89,29.84,10,8,5,8,2,15,0.00,4,,276
2013-8-21,81,72,63,61,58,51,90,65,40,29.91,29.88,29.83,10,10,9,9,1,15,0.00,0,,277
2013-8-22,85,74,63,59,56,49,84,59,33,29.92,29.87,29.79,10,10,10,9,1,14,0.00,0,,200
2013-8-23,86,75,63,59,57,52,84,60,36,29.86,29.80,29.74,10,10,9,8,1,13,0.00,0,,-1
2013-8-24,80,71,61,59,58,56,97,71,45,29.87,29.82,29.76,10,6,0,8,1,13,0.00,3,Fog,275
2013-8-25,80,69,58,59,57,54,93,68,42,29.91,29.88,29.84,10,5,0,7,1,10,0.00,3,Fog,-1
2013-8-26,89,76,63,59,55,45,84,56,27,29.90,29.86,29.81,10,10,7,8,1,12,0.00,0,,275
2013-8-27,87,77,67,61,58,52,73,55,37,29.83,29.80,29.76,10,10,10,8,1,13,0.00,1,,273
2013-8-28,89,77,65,62,57,48,87,58,29,29.88,29.82,29.77,10,10,10,10,1,15,0.00,0,,257
2013-8-29,96,82,67,61,58,52,81,55,29,29.91,29.88,29.86,10,10,10,9,1,14,0.00,0,,270
2013-8-30,95,84,73,67,63,60,68,53,38,29.95,29.91,29.88,10,10,10,8,1,14,0.00,0,,240
2013-8-31,89,82,74,68,64,61,73,61,48,29.95,29.92,29.87,10,10,10,10,2,16,0.00,0,,265